Time,TemperatureF,DewpointF,PressureIn,WindDirection,WindDirectionDegrees,WindSpeedMPH,WindSpeedGustMPH,Humidity,HourlyPrecipIn,Conditions,Clouds,dailyrainin,SolarRadiationWatts/m^2,SoftwareType,DateUTC
2013-01-14 00:12:00,29.1,26.0,30.10,North,360,1.0,5.0,89,0.00,,,0.01,0,weatherlink.com 1.10,2013-01-13 23:12:00,
2013-01-14 00:27:00,28.9,26.0,30.10,North,9,0.0,3.0,89,0.00,,,0.01,0,weatherlink.com 1.10,2013-01-13 23:27:00,
2013-01-14 00:42:00,28.5,25.0,30.10,North,360,0.0,2.0,88,0.00,,,0.00,0,weatherlink.com 1.10,2013-01-13 23:42:00,
2013-01-14 00:57:00,28.7,26.0,30.10,North,11,2.0,3.0,88,0.00,,,0.00,0,weatherlink.com 1.10,2013-01-13 23:57:00,
2013-01-14 01:12:00,28.6,26.0,30.10,North,360,1.0,3.0,88,0.00,,,0.00,0,weatherlink.com 1.10,2013-01-14 00:12:00,
2013-01-14 01:27:00,28.6,25.0,30.10,SW,220,0.0,3.0,87,0.00,,,0.00,0,weatherlink.com 1.10,2013-01-14 00:27:00,
2013-01-14 01:42:00,28.6,26.0,30.09,North,5,0.0,5.0,88,0.00,,,0.00,0,weatherlink.com 1.10,2013-01-14 00:42:00,
2013-01-14 01:57:00,28.7,25.0,30.09,North,5,0.0,2.0,87,0.00,,,0.00,0,weatherlink.com 1.10,2013-01-14 00:57:00,
2013-01-14 02:12:00,28.8,25.0,30.10,North,5,2.0,2.0,87,0.00,,,0.00,0,weatherlink.com 1.10,2013-01-14 01:12:00,
2013-01-14 02:27:00,28.9,26.0,30.09,North,5,0.0,2.0,87,0.00,,,0.00,0,weatherlink.com 1.10,2013-01-14 01:27:00,
2013-01-14 02:42:00,28.8,26.0,30.08,North,355,0.0,2.0,88,0.00,,,0.00,0,weatherlink.com 1.10,2013-01-14 01:42:00,
2013-01-14 02:57:00,28.6,26.0,30.08,North,360,0.0,3.0,88,0.00,,,0.00,0,weatherlink.com 1.10,2013-01-14 01:57:00,
2013-01-14 03:12:00,28.2,25.0,30.08,NNW,341,0.0,2.0,89,0.00,,,0.00,0,weatherlink.com 1.10,2013-01-14 02:12:00,
2013-01-14 03:27:00,28.2,26.0,30.08,NNW,343,0.0,2.0,90,0.00,,,0.00,0,weatherlink.com 1.10,2013-01-14 02:27:00,
2013-01-14 03:42:00,28.3,26.0,30.08,NNW,342,0.0,2.0,89,0.00,,,0.00,0,weatherlink.com 1.10,2013-01-14 02:42:00,
2013-01-14 03:57:00,28.2,26.0,30.07,NNW,342,0.0,3.0,90,0.00,,,0.00,0,weatherlink.com 1.10,2013-01-14 02:57:00,
2013-01-14 04:12:00,28.3,26.0,30.06,NNW,342,1.0,2.0,90,0.00,,,0.00,0,weatherlink.com 1.10,2013-01-14 03:12:00,
2013-01-14 04:27:00,28.4,26.0,30.06,NNW,342,0.0,2.0,90,0.00,,,0.00,0,weatherlink.com 1.10,2013-01-14 03:27:00,
2013-01-14 04:42:00,28.4,26.0,30.06,NNW,342,0.0,3.0,90,0.00,,,0.00,0,weatherlink.com 1.10,2013-01-14 03:42:00,
2013-01-14 04:57:00,28.5,26.0,30.06,North,11,0.0,6.0,90,0.00,,,0.00,0,weatherlink.com 1.10,2013-01-14 03:57:00,
2013-01-14 05:12:00,28.5,26.0,30.05,North,355,0.0,3.0,91,0.00,,,0.00,0,weatherlink.com 1.10,2013-01-14 04:12:00,
2013-01-14 05:27:00,28.6,26.0,30.06,NNE,17,2.0,4.0,91,0.00,,,0.00,0,weatherlink.com 1.10,2013-01-14 04:27:00,
2013-01-14 05:42:00,28.6,26.0,30.06,North,-999,0.0,4.0,91,0.00,,,0.00,0,weatherlink.com 1.10,2013-01-14 04:42:00,
2013-01-14 05:57:00,28.6,26.0,30.06,North,360,0.0,4.0,91,0.00,,,0.00,0,weatherlink.com 1.10,2013-01-14 04:57:00,
2013-01-14 06:12:00,28.7,26.0,30.05,North,5,1.0,5.0,91,0.00,,,0.00,0,weatherlink.com 1.10,2013-01-14 05:12:00,
2013-01-14 06:43:00,28.8,27.0,30.04,North,355,4.0,4.0,91,0.00,,,0.00,0,weatherlink.com 1.10,2013-01-14 05:43:00,
2013-01-14 06:58:00,28.9,27.0,30.04,NNE,19,0.0,7.0,91,0.00,,,0.00,0,weatherlink.com 1.10,2013-01-14 05:58:00,
2013-01-14 07:13:00,28.9,27.0,30.04,North,11,3.0,3.0,92,0.00,,,0.00,0,weatherlink.com 1.10,2013-01-14 06:13:00,
2013-01-14 07:43:00,29.2,27.0,30.05,North,355,0.0,6.0,92,0.00,,,0.00,0,weatherlink.com 1.10,2013-01-14 06:43:00,
2013-01-14 07:58:00,29.6,28.0,30.05,North,355,0.0,6.0,92,0.00,,,0.00,0,weatherlink.com 1.10,2013-01-14 06:58:00,
2013-01-14 08:13:00,29.9,28.0,30.05,North,355,0.0,3.0,92,0.00,,,0.00,0,weatherlink.com 1.10,2013-01-14 07:13:00,
2013-01-14 08:28:00,29.9,28.0,30.04,North,360,0.0,1.0,92,0.00,,,0.00,0,weatherlink.com 1.10,2013-01-14 07:28:00,
2013-01-14 08:43:00,29.8,28.0,30.04,North,355,0.0,2.0,92,0.00,,,0.00,0,weatherlink.com 1.10,2013-01-14 07:43:00,
2013-01-14 08:58:00,30.0,28.0,30.03,North,355,0.0,3.0,92,0.00,,,0.00,5,weatherlink.com 1.10,2013-01-14 07:58:00,
2013-01-14 09:13:00,30.2,28.0,30.04,North,351,0.0,1.0,92,0.00,,,0.00,0,weatherlink.com 1.10,2013-01-14 08:13:00,
2013-01-14 09:28:00,30.4,28.0,30.03,North,355,0.0,2.0,92,0.00,,,0.00,0,weatherlink.com 1.10,2013-01-14 08:28:00,
2013-01-14 09:43:00,30.7,29.0,30.03,North,355,0.0,1.0,92,0.00,,,0.00,7,weatherlink.com 1.10,2013-01-14 08:43:00,
2013-01-14 10:13:00,31.5,30.0,30.03,North,355,0.0,1.0,92,0.00,,,0.00,18,weatherlink.com 1.10,2013-01-14 09:13:00,
2013-01-14 10:28:00,32.1,30.0,30.03,North,355,0.0,1.0,92,0.00,,,0.00,14,weatherlink.com 1.10,2013-01-14 09:28:00,
2013-01-14 10:43:00,32.6,31.0,30.02,North,355,2.0,3.0,92,0.00,,,0.00,14,weatherlink.com 1.10,2013-01-14 09:43:00,
2013-01-14 10:58:00,32.8,31.0,30.02,NE,36,0.0,2.0,91,0.00,,,0.00,12,weatherlink.com 1.10,2013-01-14 09:58:00,
2013-01-14 11:13:00,33.4,31.0,30.01,NE,38,0.0,2.0,91,0.00,,,0.00,25,weatherlink.com 1.10,2013-01-14 10:13:00,
2013-01-14 11:28:00,33.9,31.0,30.00,NNE,28,1.0,4.0,90,0.00,,,0.00,28,weatherlink.com 1.10,2013-01-14 10:28:00,
2013-01-14 11:43:00,34.5,32.0,30.00,NNE,17,0.0,3.0,90,0.00,,,0.00,18,weatherlink.com 1.10,2013-01-14 10:43:00,
2013-01-14 11:58:00,34.5,32.0,30.00,South,190,0.0,1.0,89,0.00,,,0.00,11,weatherlink.com 1.10,2013-01-14 10:58:00,
2013-01-14 12:13:00,34.6,31.0,30.00,SSW,193,0.0,1.0,88,0.00,,,0.00,26,weatherlink.com 1.10,2013-01-14 11:13:00,
2013-01-14 12:28:00,35.0,32.0,29.99,South,190,0.0,2.0,89,0.00,,,0.00,26,weatherlink.com 1.10,2013-01-14 11:28:00,
2013-01-14 12:43:00,35.2,32.0,29.99,SSW,196,0.0,0.0,88,0.00,,,0.00,14,weatherlink.com 1.10,2013-01-14 11:43:00,
2013-01-14 12:58:00,35.1,32.0,29.97,SSW,192,0.0,2.0,87,0.00,,,0.00,26,weatherlink.com 1.10,2013-01-14 11:58:00,
2013-01-14 13:28:00,35.3,32.0,29.97,SSW,193,1.0,3.0,86,0.00,,,0.00,35,weatherlink.com 1.10,2013-01-14 12:28:00,
2013-01-14 13:43:00,35.3,32.0,29.97,North,5,2.0,5.0,86,0.00,,,0.00,40,weatherlink.com 1.10,2013-01-14 12:43:00,
2013-01-14 13:58:00,35.5,32.0,29.96,North,355,1.0,5.0,86,0.00,,,0.00,23,weatherlink.com 1.10,2013-01-14 12:58:00,
2013-01-14 14:13:00,35.6,32.0,29.98,North,360,0.0,1.0,85,0.00,,,0.00,25,weatherlink.com 1.10,2013-01-14 13:13:00,
2013-01-14 14:28:00,35.7,32.0,29.98,North,355,0.0,0.0,86,0.00,,,0.00,16,weatherlink.com 1.10,2013-01-14 13:28:00,
2013-01-14 15:14:00,35.6,32.0,29.98,North,360,0.0,0.0,87,0.00,,,0.00,11,weatherlink.com 1.10,2013-01-14 14:14:00,
2013-01-14 15:28:00,35.4,32.0,29.98,North,355,0.0,0.0,87,0.00,,,0.00,7,weatherlink.com 1.10,2013-01-14 14:28:00,
2013-01-14 15:43:00,35.3,32.0,29.97,North,355,0.0,1.0,88,0.00,,,0.00,0,weatherlink.com 1.10,2013-01-14 14:43:00,
2013-01-14 15:58:00,35.1,32.0,29.96,North,360,0.0,1.0,88,0.00,,,0.00,0,weatherlink.com 1.10,2013-01-14 14:58:00,
2013-01-14 16:58:00,34.5,32.0,29.96,North,360,0.0,1.0,90,0.00,,,0.00,0,weatherlink.com 1.10,2013-01-14 15:58:00,
2013-01-14 17:13:00,34.5,32.0,29.96,North,360,0.0,1.0,91,0.00,,,0.00,0,weatherlink.com 1.10,2013-01-14 16:13:00,
2013-01-14 17:28:00,34.6,32.0,29.95,North,355,0.0,3.0,91,0.00,,,0.00,0,weatherlink.com 1.10,2013-01-14 16:28:00,
2013-01-14 17:43:00,34.6,32.0,29.96,North,355,0.0,1.0,91,0.00,,,0.00,0,weatherlink.com 1.10,2013-01-14 16:43:00,
2013-01-14 17:58:00,34.6,32.0,29.96,North,355,0.0,0.0,91,0.00,,,0.00,0,weatherlink.com 1.10,2013-01-14 16:58:00,
2013-01-14 18:14:00,34.5,33.0,29.96,North,360,0.0,0.0,92,0.00,,,0.00,0,weatherlink.com 1.10,2013-01-14 17:14:00,
2013-01-14 18:29:00,34.5,33.0,29.95,North,360,0.0,1.0,92,0.00,,,0.00,0,weatherlink.com 1.10,2013-01-14 17:29:00,
2013-01-14 18:44:00,34.5,33.0,29.95,North,355,0.0,1.0,92,0.01,,,0.01,0,weatherlink.com 1.10,2013-01-14 17:44:00,
2013-01-14 19:14:00,34.4,32.0,29.95,North,360,0.0,0.0,92,0.01,,,0.01,0,weatherlink.com 1.10,2013-01-14 18:14:00,
2013-01-14 19:29:00,34.4,32.0,29.93,North,355,0.0,1.0,92,0.01,,,0.01,0,weatherlink.com 1.10,2013-01-14 18:29:00,
2013-01-14 20:28:00,34.3,33.0,29.93,North,355,0.0,1.0,93,0.02,,,0.03,0,weatherlink.com 1.10,2013-01-14 19:28:00,
2013-01-14 20:43:00,34.3,33.0,29.92,North,360,0.0,0.0,93,0.03,,,0.05,0,weatherlink.com 1.10,2013-01-14 19:43:00,
2013-01-14 20:58:00,34.5,33.0,29.92,North,355,0.0,0.0,93,0.04,,,0.06,0,weatherlink.com 1.10,2013-01-14 19:58:00,
2013-01-14 21:13:00,34.6,33.0,29.92,North,360,0.0,1.0,93,0.05,,,0.07,0,weatherlink.com 1.10,2013-01-14 20:13:00,
2013-01-14 21:28:00,34.7,33.0,29.91,North,355,0.0,1.0,93,0.05,,,0.08,0,weatherlink.com 1.10,2013-01-14 20:28:00,
2013-01-14 21:44:00,34.7,33.0,29.92,North,355,0.0,0.0,93,0.04,,,0.09,0,weatherlink.com 1.10,2013-01-14 20:44:00,
2013-01-14 22:13:00,34.8,33.0,29.92,North,355,0.0,0.0,93,0.04,,,0.11,0,weatherlink.com 1.10,2013-01-14 21:13:00,
2013-01-14 22:28:00,34.7,33.0,29.92,North,355,0.0,1.0,93,0.04,,,0.12,0,weatherlink.com 1.10,2013-01-14 21:28:00,
2013-01-14 22:43:00,34.6,33.0,29.91,North,360,0.0,1.0,93,0.04,,,0.13,0,weatherlink.com 1.10,2013-01-14 21:43:00,
2013-01-14 22:58:00,34.6,33.0,29.91,North,355,0.0,1.0,93,0.04,,,0.13,0,weatherlink.com 1.10,2013-01-14 21:58:00,
2013-01-14 23:13:00,34.7,33.0,29.92,North,355,0.0,2.0,93,0.03,,,0.14,0,weatherlink.com 1.10,2013-01-14 22:13:00,
2013-01-14 23:28:00,34.8,33.0,29.92,North,360,0.0,1.0,94,0.03,,,0.15,0,weatherlink.com 1.10,2013-01-14 22:28:00,
2013-01-14 23:43:00,34.8,33.0,29.91,North,360,0.0,1.0,94,0.03,,,0.16,0,weatherlink.com 1.10,2013-01-14 22:43:00,
2013-01-14 23:59:00,34.9,33.0,29.91,North,355,0.0,0.0,94,0.04,,,0.17,0,weatherlink.com 1.10,2013-01-14 22:59:00,